Hourly Data Report for March 06, 2017

All times are specified in Local Standard Time (LST). Add 1 hour to adjust for Daylight Saving Time where and when it is observed.

TORONTO CITY
ONTARIO

43°40'00.000" N
79°24'00.000" W
112.50 m
6158355
71508
XTO

Download Data

Hourly Data (March 2017)
Hourly Data Report for March 6, 2017
TIME Temp Definition
°C
Dew Point Definition
°C
Rel Hum Definition
%
Wind Dir Definition
10's deg

Wind Spd Definition
km/h
Visibility Definition
km
Stn Press Definition
kPa
Hmdx Definition


Wind Chill Definition


Weather Definition


00:00 -0.6 -6.4 65 LegendMM LegendMM   101.44     LegendNANA
01:00 -0.4 -6.3 64 LegendMM LegendMM   101.38     LegendNANA
02:00 0.2 -5.8 64 LegendMM LegendMM   101.39     LegendNANA
03:00 0.5 -5.3 65 LegendMM LegendMM   101.31     LegendNANA
04:00 0.6 -4.6 68 LegendMM LegendMM   101.18     LegendNANA
05:00 0.9 -3.9 71 LegendMM LegendMM   101.17     LegendNANA
06:00 1.0 -3.8 70 LegendMM LegendMM   101.13     LegendNANA
07:00
08:00 2.0 -3.7 66 LegendMM LegendMM   101.07     LegendNANA
09:00 2.2 -2.6 71 LegendMM LegendMM   101.04     LegendNANA
10:00 2.4 -2.2 71 LegendMM LegendMM   101.02     LegendNANA
11:00 3.6 -1.6 69 LegendMM LegendMM   100.99     LegendNANA
12:00 4.6 -1.6 64 LegendMM LegendMM   100.93     LegendNANA
13:00 4.0 -1.7 66 LegendMM LegendMM   100.87     LegendNANA
14:00 4.1 -1.1 69 LegendMM LegendMM   100.80     LegendNANA
15:00 3.7 -0.1 76 LegendMM LegendMM   100.75     LegendNANA
16:00 3.7 -0.7 73 LegendMM LegendMM   100.69     LegendNANA
17:00 3.7 -0.5 74 LegendMM LegendMM   100.65     LegendNANA
18:00 3.6 -0.7 74 LegendMM LegendMM   100.64     LegendNANA
19:00 4.0 -0.5 72 LegendMM LegendMM   100.60     LegendNANA
20:00 4.6 0.1 72 LegendMM LegendMM   100.58     LegendNANA
21:00 5.5 1.4 75 LegendMM LegendMM   100.52     LegendNANA
22:00 6.5 2.7 77 LegendMM LegendMM   100.49     LegendNANA
23:00 5.9 4.6 91 LegendMM LegendMM   100.41     LegendNANA

Notes on Data Quality.

Legend

  • E = Estimated
  • M = Missing
  • NA = Not Available
Date modified: